Regional Weather Roundup
Issued by NWS

Home | Current Version | Previous Version | Text Only | Print | Product List | Glossary Off
Versions: 1 2 3 4 5 6 7 8 9 10 11 12 13 14 15 16 17 18 19 20 21 22 23 24 25 26 27 28 29 30 31 32 33 34 35 36 37 38 39 40 41 42 43 44 45 46 47 48 49 50

000
ASUS43 KMPX 302201
RWRMN
WEATHER ROUNDUP FOR MINNESOTA
NATIONAL WEATHER SERVICE TWIN CITIES/CHANHASSEN MN
500 PM CDT MON MAR 30 2015


NOTE: "FAIR" INDICATES FEW OR NO CLOUDS BELOW 12,000 FEET WITH NO
SIGNIFICANT WEATHER AND/OR OBSTRUCTIONS TO VISIBILITY. N/A MEANS
CURRENT SKY AND/OR WEATHER CONDITIONS ARE NOT AVAILABLE.

MNZ060>063-068>070-302300-
   Twin Cities Metro

CITY           SKY/WX    TMP DP  RH WIND       PRES   REMARKS
TWIN CITIES    PTSUNNY   57  34  41 SE13      29.79F
ST PAUL        CLOUDY    56  33  42 S9        29.80F
CRYSTAL        PTSUNNY   58  32  37 SE9       29.78F
LAKEVILLE      PTSUNNY   55  37  50 SE7       29.79F
EDEN PRAIRIE   PTSUNNY   59  34  39 SE9       29.77F
SOUTH ST PAUL  CLOUDY    56  32  40 SE6       29.79F
LAKE ELMO      PTSUNNY   54  34  47 SE8       29.81F
$$
MNZ001>005-007-008-013>017-022>024-027-028-302300-
   Northwest Minnesota

CITY           SKY/WX    TMP DP  RH WIND       PRES   REMARKS
BEMIDJI        DRIZZLE   38  35  89 CALM      29.87F
HALLOCK        SUNNY     50  39  66 SW6       29.83F
ROSEAU         PTSUNNY   50  37  62 W7        29.84F
WARROAD        PTSUNNY   48  34  57 S7        29.84F
THIEF RVR FALL CLOUDY    45  37  76 E7        29.85F
CROOKSTON      SUNNY     48  37  66 E3        29.86S
FOSSTON        CLOUDY    43  41  93 E6        29.86S
DETROIT LAKES  MOSUNNY   52  34  50 NE9       29.83R
MOORHEAD       SUNNY     61  34  36 N13       29.83R
PARK RAPIDS    CLOUDY    42  36  79 NE9       29.85R
MAHNOMEN       MOCLDY    46  39  77 E9        29.84S
$$
MNZ006-009>011-018-025>026-302300-
   North Central Minnesota

CITY           SKY/WX    TMP DP  RH WIND       PRES   REMARKS
BAUDETTE       PTSUNNY   49  31  49 CALM      29.82F
FLAG ISLAND    PTSUNNY   45  28  53 S12       29.80F
INTL FALLS     CLOUDY    50  24  36 NW7       29.81S
WASKISH        CLOUDY    43  34  70 CALM      29.86S
BIG FORK       CLOUDY    46  36  66 SW9       29.85F
LONGVILLE      LGT RAIN  39  37  93 CALM      29.87F
GRAND RAPIDS   CLOUDY    37  34  87 SW6       29.88R
ORR            CLOUDY    50  18  27 CALM      29.80S
COOK           CLOUDY    48  25  40 W6        29.83R
WALKER         LGT RAIN  37  35  94 NE5       29.88S
$$
MNZ012-019>021-037-302300-
   Northeast Minnesota

CITY           SKY/WX    TMP DP  RH WIND       PRES   REMARKS
DULUTH         LGT RAIN  44  34  67 SW9       29.83R
ELY            CLOUDY    48  18  29 N5        29.81S
HIBBING        CLOUDY    45  29  53 SW6       29.84R
EVELETH        CLOUDY    46  27  46 NW7       29.84R
DULUTH HARBOR  DRIZZLE   45  37  76 MISG      29.86R
TWO HARBORS    CLOUDY    52  28  40 S7        29.81R
SILVER BAY     CLOUDY    50  21  32 S9        29.80R
GRAND MARAIS     N/A     36  32  85 NE6       29.86R
G MARAIS ARPRT CLOUDY    43  19  39 S3        29.82S
$$
MNZ029>031-032-039>041-046>048-054>057-064-302300-
   West Central Minnesota

CITY           SKY/WX    TMP DP  RH WIND       PRES   REMARKS
FERGUS FALLS   SUNNY     63  32  31 NW24      29.80R
WHEATON        MOSUNNY   64  37  36 NW26G33   29.80R
MORRIS         SUNNY     68  37  32 NW29G35   29.76S
ALEXANDRIA     SUNNY     63  36  36 NW17G29   29.77S
ELBOW LAKE     FAIR      60  37  42 NW24      29.78R
WADENA         SUNNY     52  36  54 E9        29.81R
GLENWOOD       SUNNY     64  37  36 W10       29.77S HAZE
APPLETON       SUNNY     72  34  25 NW23G31   29.78R
BENSON         MOSUNNY   70  32  24 N24G30    29.76S
ORTONVILLE     MOSUNNY   68  34  28 NW21G26   29.79R
MADISON        MOSUNNY   72  30  21 NW22G36   29.78R
WILLMAR        FAIR      70  30  23 NW25G32   29.77R
$$
MNZ033>034-036-042>043-049>051-058-059-302300-
   Central Minnesota

CITY           SKY/WX    TMP DP  RH WIND       PRES   REMARKS
ST CLOUD       MOSUNNY   56  31  38 VRB5      29.78S
SAUK CENTRE    FAIR      60  37  43 E3        29.77S
PAYNESVILLE    MOSUNNY   61  34  35 SW5       29.76F
AITKIN         MIX PCPN  43  37  81 N7        29.85R
PINE RIVER     PTSUNNY   39  37  93 N9        29.89S
BRAINERD       PTSUNNY   45  37  73 NE9       29.85R
STAPLES        MOSUNNY   50  34  53 NE8       29.82R
LONG PRAIRIE   FAIR      55  34  44 CALM      29.78F
LITTLE FALLS   MOSUNNY   54  32  43 E8        29.79F
LITCHFIELD     MOSUNNY   64  36  34 CALM      29.76F
MAPLE LAKE     MOSUNNY   60  35  39 E6        29.78F
$$
MNZ037-044-045-052-053-302300-
   East Central Minnesota

CITY           SKY/WX    TMP DP  RH WIND       PRES   REMARKS
PRINCETON      PTSUNNY   55  36  47 CALM      29.81R
MORA           LGT RAIN  45  34  65 CALM      29.84R
CAMBRIDGE      PTSUNNY   55  39  54 E5        29.78S
MOOSE LAKE     LGT RAIN  39  37  93 CALM      29.84R
HINCKLEY       CLOUDY    45  37  76 CALM      29.84R
CLOQUET        RAIN      39  36  87 W5        29.86R
MCGREGOR       CLOUDY    41  37  87 N6        29.87R
$$
MNZ071>073-080-081-089-090-097-098-302300-
   Southwest Minnesota

CITY           SKY/WX    TMP DP  RH WIND       PRES   REMARKS
MONTEVIDEO     SUNNY     73  34  23 N23G35    29.77R
GRANITE FALLS  SUNNY     73  32  22 W23G35    29.78R
CANBY          MOSUNNY   71  31  22 NW23G36   29.80S
MARSHALL       SUNNY     72  30  21 NW30G41   29.78R
REDWOOD FALLS  MOSUNNY   74  29  19 NW23G37   29.74F
OLIVIA         MOSUNNY   70  36  28 NW20G26   29.74F
PIPESTONE      MOSUNNY   70  27  19 NW21G31   29.82S
WINDOM         SUNNY     73  25  16 W25G35    29.79R
WORTHINGTON    SUNNY     73  28  19 W29G36    29.81F
JACKSON        SUNNY     72  21  15 W25G33    29.80S
TRACY          MOSUNNY   73  31  21 NW22G36   29.78F
SLAYTON        MOSUNNY   70  20  15 W26G38    29.81S
$$
MNZ065>067-074>077-082>085-091>093-302300-
   South Central Minnesota

CITY           SKY/WX    TMP DP  RH WIND       PRES   REMARKS
MANKATO        MOSUNNY   66  36  32 NE6       29.77F
NEW ULM        SUNNY     70  30  23 N5        29.75S
FAIRMONT       MOSUNNY   73  14  10 W23G29    29.77F
GLENCOE        SUNNY     64  40  42 E3        29.75F
FARIBAULT      SUNNY     61  39  44 SE7       29.78F
OWATONNA       SUNNY     63  39  42 E8        29.77F
WASECA         SUNNY     63  41  45 NE7       29.78F
ALBERT LEA     SUNNY     72  25  17 W13       29.76F
$$
MNZ078>079-086>088-094>096-302300-
   Southeast Minnesota

CITY           SKY/WX    TMP DP  RH WIND       PRES   REMARKS
ROCHESTER      MOSUNNY   60  40  47 SE9       29.80F
RED WING       PTSUNNY   54  30  40 SE9       29.79F
STANTON        PTSUNNY   59  36  41 SE8       29.78F
DODGE CENTER   MOSUNNY   61  43  51 SE8       29.78F
WINONA         PTSUNNY   55  32  41 E10       29.82F
AUSTIN         SUNNY     68  28  22 W15       29.77F
PRESTON        MOSUNNY   57  34  41 SE9       29.80F
$$
ABBREVIATIONS USED IN REMARKS
   TC - TEMPERATURES IN CELSIUS
  WCI - WIND CHILL INDEX
   HX - HEAT INDEX
  VSB - VISIBILITY
$$



USA.gov is the U.S. government's official web portal to all federal, state and local government web resources and services.